| time (UTC) | temp C | wind direction | speed KPH | gust KPH | rain 1hr cm | rain 24hr cm | rain mn cm | humidity % | barometer mb |
| 20260831014429 | 24 | 55 | 0.0 | 0.0 | 0.00 | 0.00 | 0.00 | 83 | 1019.6 |
| 20260831014152 | 24 | 55 | 0.0 | 0.0 | 0.00 | 0.00 | 0.00 | 83 | 1019.5 |
| 20260831013427 | 24 | 55 | 0.0 | 0.0 | 0.00 | 0.00 | 0.00 | 83 | 1019.5 |
| 20260831013155 | 24 | 55 | 0.0 | 0.0 | 0.00 | 0.00 | 0.00 | 82 | 1019.6 |
| 20260831012426 | 24 | 55 | 0.0 | 0.0 | 0.00 | 0.00 | 0.00 | 82 | 1019.6 |
| 20260831011927 | 25 | 55 | 0.0 | 0.0 | 0.00 | 0.00 | 0.00 | 82 | 1019.7 |
| 20260831011425 | 25 | 55 | 0.0 | 0.0 | 0.00 | 0.00 | 0.00 | 81 | 1019.8 |
| 20260831010926 | 25 | 55 | 0.0 | 0.0 | 0.00 | 0.00 | 0.00 | 80 | 1019.7 |
| 20260831010653 | 25 | 55 | 0.0 | 0.0 | 0.00 | 0.00 | 0.00 | 80 | 1019.7 |
| 20260831010130 | 25 | 55 | 0.0 | 0.0 | 0.00 | 0.00 | 0.00 | 79 | 1019.5 |
| 20260831010019 | 25 | 55 | 0.0 | 0.0 | 0.00 | 0.00 | 0.00 | 80 | 1019.6 |
| 20260831004923 | 25 | 55 | 0.0 | 0.0 | 0.00 | 0.00 | 0.00 | 79 | 1019.3 |
| 20260831004422 | 25 | 55 | 0.0 | 0.0 | 0.00 | 0.00 | 0.00 | 79 | 1019.3 |
| 20260831003920 | 25 | 55 | 0.0 | 0.0 | 0.00 | 0.00 | 0.00 | 78 | 1019.2 |
| 20260831003420 | 25 | 55 | 0.0 | 0.0 | 0.00 | 0.00 | 0.00 | 78 | 1019.2 |
| 20260831002914 | 25 | 55 | 0.0 | 0.0 | 0.00 | 0.00 | 0.00 | 78 | 1019.2 |
| 20260831002637 | 26 | 55 | 0.0 | 0.0 | 0.00 | 0.00 | 0.00 | 78 | 1019.1 |
| 20260831001902 | 26 | 55 | 0.0 | 1.6 | 0.00 | 0.00 | 0.00 | 77 | 1019.1 |
| 20260831001618 | 26 | 55 | 0.0 | 1.6 | 0.00 | 0.00 | 0.00 | 77 | 1019.1 |
| 20260831000850 | 26 | 37 | 0.0 | 0.0 | 0.00 | 0.00 | 0.00 | 77 | 1019.2 |
| 20260831000611 | 26 | 37 | 0.0 | 3.2 | 0.00 | 0.00 | 0.00 | 76 | 1019.1 |
| 20260830235839 | 26 | 37 | 0.0 | 3.2 | 0.00 | 0.00 | 0.00 | 76 | 1019.0 |
| 20260830235333 | 26 | 312 | 0.0 | 1.6 | 0.00 | 0.00 | 0.00 | 75 | 1019.0 |
| 20260830234827 | 26 | 236 | 0.0 | 1.6 | 0.00 | 0.00 | 0.00 | 75 | 1019.0 |
| 20260830234322 | 26 | 236 | 0.0 | 3.2 | 0.00 | 0.00 | 0.00 | 75 | 1019.1 |
| 20260830233814 | 26 | 35 | 0.0 | 3.2 | 0.00 | 0.00 | 0.00 | 74 | 1019.1 |
| 20260830233309 | 26 | 331 | 0.0 | 3.2 | 0.00 | 0.00 | 0.00 | 73 | 1019.2 |
| 20260830232802 | 26 | 304 | 0.0 | 3.2 | 0.00 | 0.00 | 0.00 | 73 | 1019.2 |
| 20260830232256 | 27 | 315 | 0.0 | 3.2 | 0.00 | 0.00 | 0.00 | 72 | 1019.1 |
| 20260830231750 | 27 | 315 | 1.6 | 6.4 | 0.00 | 0.00 | 0.00 | 71 | 1019.0 |
| 20260830231244 | 27 | 265 | 1.6 | 8.0 | 0.00 | 0.00 | 0.00 | 70 | 1018.9 |
| 20260830230738 | 27 | 248 | 1.6 | 8.0 | 0.00 | 0.00 | 0.00 | 70 | 1018.8 |
| 20260830230459 | 27 | 125 | 0.0 | 4.8 | 0.00 | 0.00 | 0.00 | 71 | 1018.9 |
| 20260830225958 | 27 | 302 | 0.0 | 3.2 | 0.00 | 0.00 | 0.00 | 72 | 1018.8 |
| 20260830225221 | 28 | 242 | 1.6 | 4.8 | 0.00 | 0.00 | 0.00 | 72 | 1018.8 |
| 20260830224714 | 28 | 288 | 1.6 | 6.4 | 0.00 | 0.00 | 0.00 | 72 | 1018.9 |
| 20260830224434 | 28 | 271 | 1.6 | 6.4 | 0.00 | 0.00 | 0.00 | 72 | 1018.9 |
| 20260830223703 | 28 | 238 | 1.6 | 6.4 | 0.00 | 0.00 | 0.00 | 72 | 1018.9 |
| 20260830223156 | 28 | 178 | 0.0 | 6.4 | 0.00 | 0.00 | 0.00 | 73 | 1018.7 |
| 20260830222650 | 28 | 258 | 0.0 | 0.0 | 0.00 | 0.00 | 0.00 | 73 | 1018.7 |
| 20260830222144 | 28 | 258 | 0.0 | 0.0 | 0.00 | 0.00 | 0.00 | 73 | 1018.5 |
| 20260830221638 | 28 | 258 | 0.0 | 0.0 | 0.00 | 0.00 | 0.00 | 72 | 1018.5 |
| 20260830221132 | 28 | 258 | 0.0 | 0.0 | 0.00 | 0.00 | 0.00 | 72 | 1018.5 |
| 20260830220848 | 29 | 258 | 0.0 | 0.0 | 0.00 | 0.00 | 0.00 | 71 | 1018.5 |
| 20260830220121 | 29 | 258 | 0.0 | 0.0 | 0.00 | 0.00 | 0.00 | 71 | 1018.4 |
| 20260830215613 | 29 | 258 | 0.0 | 0.0 | 0.00 | 0.00 | 0.00 | 70 | 1018.4 |
| 20260830215108 | 29 | 258 | 0.0 | 0.0 | 0.00 | 0.00 | 0.00 | 70 | 1018.5 |
| 20260830214601 | 30 | 258 | 0.0 | 0.0 | 0.00 | 0.00 | 0.00 | 69 | 1018.5 |
| 20260830214101 | 30 | 259 | 0.0 | 0.0 | 0.00 | 0.00 | 0.00 | 69 | 1018.5 |
| 20260830213816 | 30 | 259 | 0.0 | 1.6 | 0.00 | 0.00 | 0.00 | 68 | 1018.6 |
| 20260830213053 | 30 | 253 | 0.0 | 1.6 | 0.00 | 0.00 | 0.00 | 69 | 1018.6 |
| 20260830212553 | 30 | 274 | 0.0 | 4.8 | 0.00 | 0.00 | 0.00 | 68 | 1018.6 |
| 20260830212052 | 30 | 274 | 1.6 | 4.8 | 0.00 | 0.00 | 0.00 | 67 | 1018.5 |
| 20260830211550 | 30 | 118 | 1.6 | 4.8 | 0.00 | 0.00 | 0.00 | 67 | 1018.5 |
| 20260830211048 | 29 | 221 | 1.6 | 3.2 | 0.00 | 0.00 | 0.00 | 69 | 1018.5 |
| 20260830210547 | 29 | 26 | 1.6 | 4.8 | 0.00 | 0.00 | 0.00 | 70 | 1018.5 |
| 20260830210047 | 29 | 223 | 1.6 | 4.8 | 0.00 | 0.00 | 0.00 | 68 | 1018.4 |
| 20260830205550 | 30 | 219 | 1.6 | 6.4 | 0.00 | 0.00 | 0.00 | 68 | 1018.4 |
| 20260830205046 | 30 | 240 | 1.6 | 8.0 | 0.00 | 0.00 | 0.00 | 64 | 1018.4 |
| 20260830204810 | 30 | 226 | 1.6 | 8.0 | 0.00 | 0.00 | 0.00 | 64 | 1018.3 |
| 20260830204045 | 30 | 115 | 1.6 | 4.8 | 0.00 | 0.00 | 0.00 | 65 | 1018.4 |
| 20260830203544 | 30 | 284 | 3.2 | 8.0 | 0.00 | 0.00 | 0.00 | 66 | 1018.4 |
| 20260830203314 | 30 | 147 | 3.2 | 8.0 | 0.00 | 0.00 | 0.00 | 63 | 1018.4 |
| 20260830202542 | 31 | 74 | 1.6 | 4.8 | 0.00 | 0.00 | 0.00 | 63 | 1018.5 |
| 20260830202043 | 31 | 273 | 1.6 | 9.7 | 0.00 | 0.00 | 0.00 | 65 | 1018.6 |
| 20260830201802 | 30 | 186 | 1.6 | 9.7 | 0.00 | 0.00 | 0.00 | 64 | 1018.7 |
| 20260830201042 | 30 | 266 | 1.6 | 6.4 | 0.00 | 0.00 | 0.00 | 62 | 1018.7 |
| 20260830200543 | 31 | 287 | 1.6 | 4.8 | 0.00 | 0.00 | 0.00 | 63 | 1018.7 |
| 20260830200300 | 31 | 350 | 1.6 | 9.7 | 0.00 | 0.00 | 0.00 | 60 | 1018.8 |
| 20260830195529 | 31 | 261 | 1.6 | 9.7 | 0.00 | 0.00 | 0.00 | 61 | 1018.8 |
| 20260830195024 | 31 | 277 | 3.2 | 11.3 | 0.00 | 0.00 | 0.00 | 61 | 1019.0 |
| 20260830194521 | 31 | 273 | 3.2 | 11.3 | 0.00 | 0.00 | 0.00 | 59 | 1019.0 |
| 20260830194023 | 31 | 300 | 3.2 | 11.3 | 0.00 | 0.00 | 0.00 | 59 | 1019.0 |
| 20260830193522 | 31 | 115 | 3.2 | 11.3 | 0.00 | 0.00 | 0.00 | 61 | 1019.0 |
| 20260830193019 | 31 | 265 | 3.2 | 11.3 | 0.00 | 0.00 | 0.00 | 59 | 1019.1 |
| 20260830192738 | 31 | 194 | 3.2 | 11.3 | 0.00 | 0.00 | 0.00 | 61 | 1019.1 |
| 20260830192019 | 31 | 180 | 3.2 | 11.3 | 0.00 | 0.00 | 0.00 | 61 | 1019.2 |
| 20260830191746 | 31 | 157 | 3.2 | 11.3 | 0.00 | 0.00 | 0.00 | 62 | 1019.2 |
| 20260830191241 | 31 | 231 | 3.2 | 9.7 | 0.00 | 0.00 | 0.00 | 59 | 1019.2 |
| 20260830190519 | 32 | 114 | 1.6 | 6.4 | 0.00 | 0.00 | 0.00 | 60 | 1019.3 |
| 20260830190019 | 31 | 238 | 1.6 | 6.4 | 0.00 | 0.00 | 0.00 | 62 | 1019.5 |
| 20260830185519 | 31 | 342 | 1.6 | 6.4 | 0.00 | 0.00 | 0.00 | 62 | 1019.6 |
| 20260830185018 | 31 | 30 | 1.6 | 6.4 | 0.00 | 0.00 | 0.00 | 61 | 1019.8 |
| 20260830184519 | 31 | 256 | 3.2 | 11.3 | 0.00 | 0.00 | 0.00 | 63 | 1020.0 |
| 20260830184019 | 31 | 263 | 3.2 | 11.3 | 0.00 | 0.00 | 0.00 | 63 | 1020.0 |
| 20260830183520 | 31 | 140 | 3.2 | 6.4 | 0.00 | 0.00 | 0.00 | 63 | 1020.1 |
| 20260830183020 | 31 | 207 | 1.6 | 6.4 | 0.00 | 0.00 | 0.00 | 62 | 1020.2 |
| 20260830182738 | 31 | 215 | 1.6 | 4.8 | 0.00 | 0.00 | 0.00 | 61 | 1020.3 |
| 20260830182019 | 31 | 131 | 1.6 | 8.0 | 0.00 | 0.00 | 0.00 | 63 | 1020.4 |
| 20260830181520 | 30 | 242 | 3.2 | 12.9 | 0.00 | 0.00 | 0.00 | 65 | 1020.5 |
| 20260830181019 | 30 | 291 | 3.2 | 12.9 | 0.00 | 0.00 | 0.00 | 63 | 1020.5 |
| 20260830180742 | 30 | 107 | 3.2 | 9.7 | 0.00 | 0.00 | 0.00 | 67 | 1020.7 |
| 20260830180019 | 30 | 267 | 3.2 | 12.9 | 0.00 | 0.00 | 0.00 | 68 | 1020.7 |
| 20260830175520 | 30 | 137 | 3.2 | 12.9 | 0.00 | 0.00 | 0.00 | 65 | 1020.9 |
| 20260830175020 | 30 | 113 | 1.6 | 9.7 | 0.00 | 0.00 | 0.00 | 67 | 1021.0 |
| 20260830174519 | 30 | 323 | 3.2 | 12.9 | 0.00 | 0.00 | 0.00 | 65 | 1021.1 |
| 20260830174019 | 29 | 261 | 3.2 | 12.9 | 0.00 | 0.00 | 0.00 | 69 | 1021.0 |
| 20260830173519 | 30 | 205 | 3.2 | 9.7 | 0.00 | 0.00 | 0.00 | 66 | 1021.1 |
| 20260830173019 | 29 | 254 | 3.2 | 11.3 | 0.00 | 0.00 | 0.00 | 67 | 1021.2 |
| 20260830172519 | 28 | 225 | 3.2 | 12.9 | 0.00 | 0.00 | 0.00 | 69 | 1021.3 |
| 20260830172018 | 28 | 315 | 4.8 | 12.9 | 0.00 | 0.00 | 0.00 | 70 | 1021.4 |
| 20260830171518 | 28 | 294 | 3.2 | 11.3 | 0.00 | 0.00 | 0.00 | 69 | 1021.4 |
| 20260830171021 | 28 | 207 | 3.2 | 11.3 | 0.00 | 0.00 | 0.00 | 71 | 1021.5 |
| 20260830170518 | 28 | 293 | 3.2 | 11.3 | 0.00 | 0.00 | 0.00 | 69 | 1021.6 |
| 20260830170017 | 28 | 146 | 3.2 | 12.9 | 0.00 | 0.00 | 0.00 | 73 | 1021.7 |
| 20260830165518 | 28 | 239 | 3.2 | 12.9 | 0.00 | 0.00 | 0.00 | 70 | 1021.8 |
| 20260830165018 | 28 | 161 | 3.2 | 9.7 | 0.00 | 0.00 | 0.00 | 71 | 1021.9 |
| 20260830164959 | 27 | 318 | 3.2 | 9.7 | 0.00 | 0.00 | 0.00 | 70 | 1021.9 |
| 20260830164240 | 28 | 227 | 3.2 | 11.3 | 0.00 | 0.00 | 0.00 | 71 | 1022.0 |
| 20260830163513 | 27 | 222 | 3.2 | 11.3 | 0.00 | 0.00 | 0.00 | 72 | 1022.0 |
| 20260830163013 | 27 | 20 | 3.2 | 14.5 | 0.00 | 0.00 | 0.00 | 71 | 1022.1 |
| 20260830162513 | 27 | 290 | 3.2 | 14.5 | 0.00 | 0.00 | 0.00 | 74 | 1022.2 |
| 20260830162013 | 26 | 260 | 3.2 | 12.9 | 0.00 | 0.00 | 0.00 | 77 | 1022.2 |
| 20260830161513 | 26 | 209 | 3.2 | 12.9 | 0.00 | 0.00 | 0.00 | 75 | 1022.2 |
| 20260830161012 | 27 | 263 | 3.2 | 14.5 | 0.00 | 0.00 | 0.00 | 74 | 1022.2 |
| 20260830160748 | 27 | 122 | 4.8 | 14.5 | 0.00 | 0.00 | 0.00 | 76 | 1022.2 |
| 20260830160014 | 27 | 280 | 3.2 | 12.9 | 0.00 | 0.00 | 0.00 | 75 | 1022.2 |
| 20260830155513 | 26 | 153 | 3.2 | 9.7 | 0.00 | 0.00 | 0.00 | 76 | 1022.2 |
| 20260830155007 | 26 | 171 | 3.2 | 14.5 | 0.00 | 0.00 | 0.00 | 76 | 1022.2 |
| 20260830154501 | 26 | 217 | 3.2 | 14.5 | 0.00 | 0.00 | 0.00 | 77 | 1022.2 |
| 20260830153956 | 27 | 233 | 3.2 | 9.7 | 0.00 | 0.00 | 0.00 | 76 | 1022.2 |
| 20260830153456 | 27 | 251 | 3.2 | 11.3 | 0.00 | 0.00 | 0.00 | 74 | 1022.2 |
| 20260830152956 | 27 | 355 | 3.2 | 11.3 | 0.00 | 0.00 | 0.00 | 75 | 1022.2 |
| 20260830152457 | 27 | 140 | 3.2 | 12.9 | 0.00 | 0.00 | 0.00 | 74 | 1022.2 |
| 20260830151958 | 27 | 136 | 3.2 | 12.9 | 0.00 | 0.00 | 0.00 | 79 | 1022.1 |
| 20260830151456 | 26 | 274 | 3.2 | 11.3 | 0.00 | 0.00 | 0.00 | 81 | 1022.2 |
| 20260830150954 | 25 | 279 | 3.2 | 11.3 | 0.00 | 0.00 | 0.00 | 81 | 1022.2 |
| 20260830150455 | 25 | 263 | 3.2 | 11.3 | 0.00 | 0.00 | 0.00 | 80 | 1022.2 |
| 20260830145954 | 26 | 222 | 1.6 | 11.3 | 0.00 | 0.00 | 0.00 | 80 | 1022.2 |
| 20260830145454 | 25 | 97 | 1.6 | 9.7 | 0.00 | 0.00 | 0.00 | 82 | 1022.1 |
| 20260830144954 | 25 | 138 | 3.2 | 9.7 | 0.00 | 0.00 | 0.00 | 84 | 1022.2 |
| 20260830144451 | 25 | 192 | 3.2 | 11.3 | 0.00 | 0.00 | 0.00 | 85 | 1022.2 |
| 20260830143951 | 25 | 180 | 1.6 | 11.3 | 0.00 | 0.00 | 0.00 | 85 | 1022.2 |
| 20260830143451 | 24 | 263 | 1.6 | 11.3 | 0.00 | 0.00 | 0.00 | 86 | 1022.2 |
| 20260830142951 | 24 | 210 | 1.6 | 11.3 | 0.00 | 0.00 | 0.00 | 86 | 1022.3 |
| 20260830142451 | 25 | 306 | 0.0 | 4.8 | 0.00 | 0.00 | 0.00 | 87 | 1022.3 |
| 20260830141950 | 24 | 294 | 1.6 | 8.0 | 0.00 | 0.00 | 0.00 | 88 | 1022.3 |
| 20260830141708 | 24 | 317 | 0.0 | 8.0 | 0.00 | 0.00 | 0.00 | 87 | 1022.3 |
| 20260830140947 | 24 | 12 | 0.0 | 6.4 | 0.00 | 0.00 | 0.00 | 88 | 1022.3 |
| 20260830140441 | 23 | 244 | 0.0 | 6.4 | 0.00 | 0.00 | 0.00 | 88 | 1022.3 |
| 20260830135936 | 23 | 102 | 0.0 | 9.7 | 0.00 | 0.00 | 0.00 | 89 | 1022.3 |
| 20260830135650 | 23 | 251 | 1.6 | 9.7 | 0.00 | 0.00 | 0.00 | 89 | 1022.3 |
| 20260830134923 | 23 | 248 | 0.0 | 6.4 | 0.00 | 0.00 | 0.00 | 90 | 1022.5 |
| 20260830134418 | 23 | 132 | 0.0 | 6.4 | 0.00 | 0.00 | 0.00 | 90 | 1022.5 |
| 20260830133911 | 23 | 152 | 1.6 | 6.4 | 0.00 | 0.00 | 0.00 | 91 | 1022.6 |
| 20260830133405 | 23 | 263 | 1.6 | 8.0 | 0.00 | 0.00 | 0.00 | 92 | 1022.6 |
| 20260830132859 | 23 | 142 | 1.6 | 8.0 | 0.00 | 0.00 | 0.00 | 92 | 1022.6 |
| 20260830132354 | 22 | 237 | 1.6 | 9.7 | 0.00 | 0.00 | 0.00 | 92 | 1022.6 |
| 20260830132109 | 22 | 275 | 3.2 | 11.3 | 0.00 | 0.00 | 0.00 | 93 | 1022.6 |
| 20260830131341 | 22 | 255 | 3.2 | 11.3 | 0.00 | 0.00 | 0.00 | 94 | 1022.7 |
| 20260830131053 | 22 | 263 | 1.6 | 6.4 | 0.00 | 0.00 | 0.00 | 94 | 1022.7 |
| 20260830130600 | 22 | 223 | 1.6 | 6.4 | 0.00 | 0.00 | 0.00 | 94 | 1022.8 |
| 20260830130049 | 22 | 101 | 1.6 | 6.4 | 0.00 | 0.00 | 0.00 | 94 | 1022.8 |
| 20260830125318 | 22 | 217 | 1.6 | 4.8 | 0.00 | 0.00 | 0.00 | 94 | 1022.8 |
| 20260830124811 | 22 | 284 | 0.0 | 4.8 | 0.00 | 0.00 | 0.00 | 94 | 1022.8 |
| 20260830124533 | 22 | 263 | 1.6 | 9.7 | 0.00 | 0.00 | 0.00 | 94 | 1022.8 |
| 20260830123759 | 22 | 82 | 1.6 | 9.7 | 0.00 | 0.00 | 0.00 | 94 | 1022.7 |
| 20260830123253 | 22 | 113 | 1.6 | 6.4 | 0.00 | 0.00 | 0.00 | 94 | 1022.7 |
| 20260830123007 | 22 | 163 | 0.0 | 6.4 | 0.00 | 0.00 | 0.00 | 94 | 1022.7 |
| 20260830122242 | 22 | 166 | 1.6 | 4.8 | 0.00 | 0.00 | 0.00 | 94 | 1022.7 |
| 20260830121735 | 22 | 166 | 1.6 | 4.8 | 0.00 | 0.00 | 0.00 | 94 | 1022.8 |
| 20260830121230 | 22 | 161 | 1.6 | 3.2 | 0.00 | 0.00 | 0.00 | 94 | 1022.8 |
| 20260830120945 | 22 | 242 | 1.6 | 6.4 | 0.00 | 0.00 | 0.00 | 94 | 1022.9 |
| 20260830120217 | 22 | 205 | 1.6 | 6.4 | 0.00 | 0.00 | 0.00 | 94 | 1022.9 |
| 20260830115711 | 22 | 238 | 1.6 | 6.4 | 0.00 | 0.00 | 0.00 | 95 | 1022.9 |
| 20260830115205 | 22 | 355 | 0.0 | 4.8 | 0.00 | 0.00 | 0.00 | 94 | 1022.9 |
| 20260830114700 | 22 | 167 | 1.6 | 9.7 | 0.00 | 0.00 | 0.00 | 94 | 1022.8 |
| 20260830114153 | 21 | 123 | 1.6 | 9.7 | 0.00 | 0.00 | 0.00 | 94 | 1022.8 |
| 20260830113647 | 21 | 72 | 0.0 | 4.8 | 0.00 | 0.00 | 0.00 | 94 | 1022.8 |
| 20260830113141 | 21 | 246 | 0.0 | 4.8 | 0.00 | 0.00 | 0.00 | 94 | 1022.8 |
| 20260830112635 | 21 | 215 | 0.0 | 3.2 | 0.00 | 0.00 | 0.00 | 94 | 1022.8 |
| 20260830112128 | 21 | 47 | 0.0 | 3.2 | 0.00 | 0.00 | 0.00 | 94 | 1022.9 |
| 20260830111629 | 21 | 182 | 0.0 | 1.6 | 0.00 | 0.00 | 0.00 | 94 | 1022.9 |
| 20260830111349 | 21 | 247 | 0.0 | 1.6 | 0.00 | 0.00 | 0.00 | 94 | 1023.0 |
| 20260830110628 | 21 | 184 | 0.0 | 1.6 | 0.00 | 0.00 | 0.00 | 94 | 1022.9 |
| 20260830110127 | 21 | 269 | 0.0 | 1.6 | 0.00 | 0.00 | 0.00 | 94 | 1022.9 |
| 20260830105624 | 21 | 244 | 0.0 | 3.2 | 0.00 | 0.00 | 0.00 | 94 | 1022.9 |
| 20260830105124 | 21 | 252 | 0.0 | 3.2 | 0.00 | 0.00 | 0.00 | 94 | 1022.9 |
| 20260830104620 | 21 | 282 | 0.0 | 1.6 | 0.00 | 0.00 | 0.00 | 94 | 1022.8 |
| 20260830104119 | 21 | 187 | 0.0 | 1.6 | 0.00 | 0.00 | 0.00 | 94 | 1022.8 |
| 20260830103619 | 21 | 187 | 0.0 | 1.6 | 0.00 | 0.00 | 0.00 | 94 | 1022.8 |
| 20260830103119 | 21 | 270 | 0.0 | 4.8 | 0.00 | 0.00 | 0.00 | 94 | 1022.8 |
| 20260830102622 | 21 | 270 | 1.6 | 4.8 | 0.00 | 0.00 | 0.00 | 94 | 1022.8 |
| 20260830102116 | 21 | 213 | 0.0 | 3.2 | 0.00 | 0.00 | 0.00 | 94 | 1022.8 |
| 20260830101838 | 21 | 273 | 0.0 | 3.2 | 0.00 | 0.00 | 0.00 | 94 | 1022.8 |
| 20260830101115 | 21 | 320 | 0.0 | 4.8 | 0.00 | 0.00 | 0.00 | 94 | 1022.8 |
| 20260830100614 | 21 | 294 | 0.0 | 4.8 | 0.00 | 0.00 | 0.00 | 94 | 1022.8 |
| 20260830100110 | 21 | 290 | 0.0 | 4.8 | 0.00 | 0.00 | 0.00 | 93 | 1022.8 |
| 20260830095609 | 21 | 140 | 0.0 | 6.4 | 0.00 | 0.00 | 0.00 | 93 | 1022.7 |
| 20260830095107 | 21 | 227 | 1.6 | 6.4 | 0.00 | 0.00 | 0.00 | 93 | 1022.8 |
| 20260830095047 | 21 | 251 | 1.6 | 6.4 | 0.00 | 0.00 | 0.00 | 93 | 1022.7 |
| 20260830094109 | 21 | 78 | 0.0 | 1.6 | 0.00 | 0.00 | 0.00 | 93 | 1022.5 |
| 20260830093602 | 21 | 265 | 0.0 | 3.2 | 0.00 | 0.00 | 0.00 | 93 | 1022.5 |
| 20260830093058 | 21 | 231 | 0.0 | 3.2 | 0.00 | 0.00 | 0.00 | 93 | 1022.4 |
| 20260830092558 | 21 | 236 | 0.0 | 3.2 | 0.00 | 0.00 | 0.00 | 93 | 1022.5 |
| 20260830092324 | 21 | 236 | 0.0 | 3.2 | 0.00 | 0.00 | 0.00 | 93 | 1022.5 |
| 20260830091556 | 21 | 236 | 0.0 | 3.2 | 0.00 | 0.00 | 0.00 | 93 | 1022.6 |
| 20260830091055 | 21 | 269 | 0.0 | 3.2 | 0.00 | 0.00 | 0.00 | 92 | 1022.6 |
| 20260830090815 | 21 | 240 | 0.0 | 0.0 | 0.00 | 0.00 | 0.00 | 92 | 1022.6 |
| 20260830090324 | 21 | 232 | 0.0 | 0.0 | 0.00 | 0.00 | 0.00 | 92 | 1022.6 |
| 20260830085556 | 21 | 232 | 0.0 | 0.0 | 0.00 | 0.00 | 0.00 | 92 | 1022.5 |
| 20260830085539 | 21 | 212 | 0.0 | 0.0 | 0.00 | 0.00 | 0.00 | 92 | 1022.5 |
| 20260830084553 | 21 | 212 | 0.0 | 0.0 | 0.00 | 0.00 | 0.00 | 92 | 1022.5 |
| 20260830084054 | 21 | 212 | 0.0 | 1.6 | 0.00 | 0.00 | 0.00 | 92 | 1022.5 |
| 20260830083553 | 21 | 212 | 0.0 | 1.6 | 0.00 | 0.00 | 0.00 | 92 | 1022.4 |
| 20260830083055 | 21 | 252 | 0.0 | 1.6 | 0.00 | 0.00 | 0.00 | 92 | 1022.4 |
| 20260830082551 | 21 | 246 | 0.0 | 0.0 | 0.00 | 0.00 | 0.00 | 92 | 1022.4 |
| 20260830082050 | 21 | 246 | 0.0 | 1.6 | 0.00 | 0.00 | 0.00 | 91 | 1022.4 |
| 20260830081551 | 21 | 246 | 0.0 | 1.6 | 0.00 | 0.00 | 0.00 | 91 | 1022.4 |
| 20260830081049 | 21 | 246 | 0.0 | 1.6 | 0.00 | 0.00 | 0.00 | 91 | 1022.4 |
| 20260830080551 | 21 | 246 | 0.0 | 1.6 | 0.00 | 0.00 | 0.00 | 91 | 1022.4 |
| 20260830080050 | 21 | 242 | 0.0 | 0.0 | 0.00 | 0.00 | 0.00 | 91 | 1022.5 |
| 20260830075550 | 21 | 242 | 0.0 | 0.0 | 0.00 | 0.00 | 0.00 | 91 | 1022.6 |
| 20260830075049 | 21 | 242 | 0.0 | 0.0 | 0.00 | 0.00 | 0.00 | 91 | 1022.5 |
| 20260830074811 | 21 | 242 | 0.0 | 0.0 | 0.00 | 0.00 | 0.00 | 90 | 1022.5 |
| 20260830074050 | 21 | 242 | 0.0 | 1.6 | 0.00 | 0.00 | 0.00 | 90 | 1022.6 |
| 20260830073551 | 21 | 242 | 0.0 | 1.6 | 0.00 | 0.00 | 0.00 | 90 | 1022.7 |
| 20260830073050 | 21 | 193 | 0.0 | 0.0 | 0.00 | 0.00 | 0.00 | 90 | 1022.7 |
| 20260830072552 | 21 | 193 | 0.0 | 0.0 | 0.00 | 0.00 | 0.00 | 90 | 1022.8 |
| 20260830072049 | 21 | 193 | 0.0 | 0.0 | 0.00 | 0.00 | 0.00 | 89 | 1022.7 |
| 20260830071550 | 21 | 193 | 0.0 | 0.0 | 0.00 | 0.00 | 0.00 | 89 | 1022.8 |
| 20260830071050 | 21 | 193 | 0.0 | 0.0 | 0.00 | 0.00 | 0.00 | 89 | 1022.9 |
| 20260830070818 | 21 | 193 | 0.0 | 0.0 | 0.00 | 0.00 | 0.00 | 89 | 1022.9 |
| 20260830070315 | 21 | 193 | 0.0 | 0.0 | 0.00 | 0.00 | 0.00 | 89 | 1022.8 |
| 20260830065544 | 21 | 193 | 0.0 | 0.0 | 0.00 | 0.00 | 0.00 | 89 | 1022.8 |
| 20260830065038 | 21 | 193 | 0.0 | 0.0 | 0.00 | 0.00 | 0.00 | 89 | 1022.9 |
| 20260830064532 | 21 | 193 | 0.0 | 0.0 | 0.00 | 0.00 | 0.00 | 89 | 1022.9 |
| 20260830064028 | 21 | 193 | 0.0 | 0.0 | 0.00 | 0.00 | 0.00 | 89 | 1023.0 |
| 20260830063522 | 21 | 193 | 0.0 | 0.0 | 0.00 | 0.00 | 0.00 | 89 | 1023.0 |
| 20260830063015 | 21 | 193 | 0.0 | 0.0 | 0.00 | 0.00 | 0.00 | 89 | 1023.1 |
| 20260830062510 | 21 | 193 | 0.0 | 0.0 | 0.00 | 0.00 | 0.00 | 89 | 1023.1 |
| 20260830062004 | 21 | 193 | 0.0 | 0.0 | 0.00 | 0.00 | 0.00 | 89 | 1023.1 |
| 20260830061458 | 21 | 193 | 0.0 | 0.0 | 0.00 | 0.00 | 0.00 | 88 | 1023.1 |
| 20260830060952 | 21 | 193 | 0.0 | 0.0 | 0.00 | 0.00 | 0.00 | 88 | 1023.1 |
| 20260830060709 | 21 | 193 | 0.0 | 0.0 | 0.00 | 0.00 | 0.00 | 88 | 1023.1 |
| 20260830055939 | 21 | 193 | 0.0 | 0.0 | 0.00 | 0.00 | 0.00 | 88 | 1023.1 |
| 20260830055433 | 21 | 193 | 0.0 | 0.0 | 0.00 | 0.00 | 0.00 | 88 | 1023.2 |
| 20260830054927 | 21 | 193 | 0.0 | 0.0 | 0.00 | 0.00 | 0.00 | 88 | 1023.2 |
| 20260830054421 | 21 | 193 | 0.0 | 0.0 | 0.00 | 0.00 | 0.00 | 88 | 1023.3 |
| 20260830053916 | 21 | 193 | 0.0 | 0.0 | 0.00 | 0.00 | 0.00 | 88 | 1023.2 |
| 20260830053409 | 21 | 193 | 0.0 | 0.0 | 0.00 | 0.00 | 0.00 | 88 | 1023.3 |
| 20260830052903 | 21 | 193 | 0.0 | 0.0 | 0.00 | 0.00 | 0.00 | 87 | 1023.2 |
| 20260830052357 | 21 | 193 | 0.0 | 0.0 | 0.00 | 0.00 | 0.00 | 87 | 1023.2 |
| 20260830051850 | 21 | 193 | 0.0 | 0.0 | 0.00 | 0.00 | 0.00 | 87 | 1023.2 |
| 20260830051345 | 21 | 193 | 0.0 | 0.0 | 0.00 | 0.00 | 0.00 | 87 | 1023.2 |
| 20260830050839 | 21 | 193 | 0.0 | 0.0 | 0.00 | 0.00 | 0.00 | 87 | 1023.1 |
| 20260830050552 | 21 | 193 | 0.0 | 0.0 | 0.00 | 0.00 | 0.00 | 87 | 1023.1 |
| 20260830045828 | 21 | 193 | 0.0 | 0.0 | 0.00 | 0.00 | 0.00 | 86 | 1023.0 |
| 20260830045322 | 21 | 193 | 0.0 | 0.0 | 0.00 | 0.00 | 0.00 | 86 | 1023.1 |
| 20260830044815 | 21 | 193 | 0.0 | 0.0 | 0.00 | 0.00 | 0.00 | 86 | 1023.1 |
| 20260830044310 | 21 | 193 | 0.0 | 0.0 | 0.00 | 0.00 | 0.00 | 86 | 1023.1 |
| 20260830043806 | 21 | 193 | 0.0 | 0.0 | 0.00 | 0.00 | 0.00 | 86 | 1023.0 |
| 20260830043258 | 21 | 193 | 0.0 | 0.0 | 0.00 | 0.00 | 0.00 | 86 | 1023.0 |
| 20260830042751 | 21 | 193 | 0.0 | 0.0 | 0.00 | 0.00 | 0.00 | 86 | 1023.0 |
| 20260830042250 | 21 | 193 | 0.0 | 0.0 | 0.00 | 0.00 | 0.00 | 86 | 1022.9 |
| 20260830041747 | 21 | 193 | 0.0 | 0.0 | 0.00 | 0.00 | 0.00 | 86 | 1022.8 |
| 20260830041247 | 21 | 193 | 0.0 | 0.0 | 0.00 | 0.00 | 0.00 | 86 | 1022.8 |
| 20260830040748 | 21 | 193 | 0.0 | 0.0 | 0.00 | 0.00 | 0.00 | 86 | 1022.7 |
| 20260830040245 | 21 | 193 | 0.0 | 0.0 | 0.00 | 0.00 | 0.00 | 85 | 1022.8 |
| 20260830035745 | 21 | 193 | 0.0 | 0.0 | 0.00 | 0.00 | 0.00 | 85 | 1022.8 |
| 20260830035244 | 21 | 193 | 0.0 | 0.0 | 0.00 | 0.00 | 0.00 | 86 | 1022.7 |
| 20260830034743 | 21 | 193 | 0.0 | 0.0 | 0.00 | 0.00 | 0.00 | 86 | 1022.7 |
| 20260830034241 | 21 | 215 | 0.0 | 0.0 | 0.00 | 0.00 | 0.00 | 85 | 1022.7 |
| 20260830033741 | 21 | 215 | 0.0 | 0.0 | 0.00 | 0.00 | 0.00 | 86 | 1022.7 |
| 20260830033238 | 21 | 215 | 0.0 | 0.0 | 0.00 | 0.00 | 0.00 | 85 | 1022.8 |
| 20260830032736 | 21 | 215 | 0.0 | 0.0 | 0.00 | 0.00 | 0.00 | 85 | 1022.8 |
| 20260830032453 | 21 | 215 | 0.0 | 0.0 | 0.00 | 0.00 | 0.00 | 85 | 1022.8 |
| 20260830031731 | 21 | 215 | 0.0 | 0.0 | 0.00 | 0.00 | 0.00 | 85 | 1022.8 |
| 20260830031230 | 21 | 215 | 0.0 | 0.0 | 0.00 | 0.00 | 0.00 | 85 | 1022.8 |
| 20260830030947 | 21 | 215 | 0.0 | 0.0 | 0.00 | 0.00 | 0.00 | 84 | 1022.9 |
| 20260830030226 | 21 | 215 | 0.0 | 0.0 | 0.00 | 0.00 | 0.00 | 84 | 1022.8 |
| 20260830025723 | 21 | 215 | 0.0 | 0.0 | 0.00 | 0.00 | 0.00 | 83 | 1022.9 |
| 20260830025221 | 21 | 215 | 0.0 | 0.0 | 0.00 | 0.00 | 0.00 | 83 | 1022.8 |
| 20260830024723 | 21 | 215 | 0.0 | 0.0 | 0.00 | 0.00 | 0.00 | 83 | 1022.7 |
| 20260830024222 | 21 | 215 | 0.0 | 0.0 | 0.00 | 0.00 | 0.00 | 83 | 1022.8 |
| 20260830023937 | 21 | 215 | 0.0 | 0.0 | 0.00 | 0.00 | 0.00 | 82 | 1022.8 |
| 20260830023211 | 21 | 215 | 0.0 | 0.0 | 0.00 | 0.00 | 0.00 | 82 | 1022.9 |
| 20260830022703 | 21 | 215 | 0.0 | 0.0 | 0.00 | 0.00 | 0.00 | 82 | 1022.8 |
| 20260830022157 | 21 | 215 | 0.0 | 0.0 | 0.00 | 0.00 | 0.00 | 82 | 1022.7 |
| 20260830021652 | 21 | 215 | 0.0 | 0.0 | 0.00 | 0.00 | 0.00 | 82 | 1022.8 |
| 20260830021146 | 21 | 215 | 0.0 | 0.0 | 0.00 | 0.00 | 0.00 | 81 | 1022.8 |
| 20260830020639 | 22 | 215 | 0.0 | 0.0 | 0.00 | 0.00 | 0.00 | 81 | 1022.8 |
| 20260830020134 | 22 | 215 | 0.0 | 0.0 | 0.00 | 0.00 | 0.00 | 80 | 1022.9 |
| 20260830015627 | 22 | 215 | 0.0 | 0.0 | 0.00 | 0.00 | 0.00 | 80 | 1022.8 |
| 20260830015123 | 22 | 215 | 0.0 | 0.0 | 0.00 | 0.00 | 0.00 | 80 | 1022.7 |